Ingonish Beach, Nova Scotia

4:46 PM AST on February 27, 2017 (GMT -0400)
Ingonish Beach

Weather History for CXIB - October, 2013

Change the Weather History Date:

Saturday, October 12, 2013

  Actual Average Record
Temperature  
Mean Temperature 42 °F -  
Max Temperature 47 °F - - ()
Min Temperature 38 °F - - ()
Degree Days  
Heating Degree Days 22    
Moisture  
Dew Point 33 °F    
Average Humidity 66    
Maximum Humidity 84    
Minimum Humidity 49    
Precipitation  
Precipitation 0.00 in - - ()
Sea Level Pressure  
Sea Level Pressure 30.35 in    
Wind  
Wind Speed 3 mph ()    
Max Wind Speed 6 mph    
Max Gust Speed -    
T = Trace of Precipitation, MM = Missing Value Source: Averaged Metar Reports

Daily Weather History Graph

Daily Weather History Graph

Search for Another Location

Airport or City:

Trip Planner

Search our weather history database for the weather conditions in past years. The results will help you decide how hot, cold, wet, or windy it might be!

Date:

Astronomy

Oct. 12, 2013 Rise Set
Actual Time 7:15 AM ADT 6:19 PM ADT
Civil Twilight 6:44 AM ADT 6:50 PM ADT
Nautical Twilight 6:09 AM ADT 7:25 PM ADT
Astronomical Twilight 5:34 AM ADT 8:00 PM ADT
Moon 2:46 PM ADT (10/12) No Moon Set
Length of Visible Light 12h 05m
Length of Day
11h 04m
First Quarter, 58% of the Moon is Illuminated
Oct 12
First Quarter
Oct 18
Full
Oct 26
Last Quarter
Nov 3
New
Nov 10
First Quarter

Hourly Weather History & Observations

Time (ADT) Temp. Windchill Dew Point Humidity Pressure Visibility Wind Dir Wind Speed Gust Speed Precip Events Conditions
12:00 AM 42.1 °F 40.2 °F 33.6 °F 72% 30.25 in - North 3.5 mph - N/A   Unknown
1:00 AM 42.1 °F - 31.5 °F 66% 30.24 in - North 2.3 mph - N/A   Unknown
2:00 AM 42.3 °F 40.5 °F 33.3 °F 70% 30.25 in - North 3.5 mph - N/A   Unknown
3:00 AM 44 °F - 32 °F 53% 30.25 in - NNE 5.8 mph - -  
3:00 AM 43.5 °F 40.1 °F 31.6 °F 63% 30.25 in - NNE 5.8 mph - N/A   Unknown
4:00 AM 43.5 °F 40.1 °F 32.9 °F 66% 30.27 in - North 5.8 mph - N/A   Unknown
5:00 AM 43.0 °F 40.3 °F 31.6 °F 64% 30.29 in - North 4.6 mph - N/A   Unknown
6:00 AM 41.9 °F 40.0 °F 30.2 °F 63% 30.31 in - North 3.5 mph - N/A   Unknown
7:00 AM 42.4 °F 39.6 °F 31.5 °F 65% 30.31 in - North 4.6 mph - N/A   Unknown
8:00 AM 43.0 °F 40.3 °F 31.6 °F 64% 30.33 in - North 4.6 mph - N/A   Unknown
9:00 AM 44 °F - 31 °F 49% 30.35 in - North 3.5 mph - -  
9:00 AM 44.1 °F 42.5 °F 31.3 °F 61% 30.35 in - North 3.5 mph - N/A   Unknown
10:00 AM 45.5 °F 43.2 °F 31.6 °F 58% 30.35 in - NNE 4.6 mph - N/A   Unknown
11:00 AM 45.0 °F 42.6 °F 35.6 °F 70% 30.37 in - NNE 4.6 mph - N/A   Unknown
12:00 PM 45.0 °F 42.6 °F 34.9 °F 68% 30.39 in - NNE 4.6 mph - N/A   Unknown
1:00 PM 45.9 °F 43.6 °F 34.0 °F 63% 30.38 in - NNE 4.6 mph - N/A   Unknown
2:00 PM 45.9 °F 44.6 °F 32.9 °F 61% 30.38 in - NE 3.5 mph - N/A   Unknown
3:00 PM 46 °F - 34 °F 51% 30.38 in - NNE 3.5 mph - -  
3:00 PM 46.0 °F 44.8 °F 33.8 °F 62% 30.38 in - NNE 3.5 mph - N/A   Unknown
4:00 PM 46.2 °F 45.0 °F 34.7 °F 64% 30.37 in - NNE 3.5 mph - N/A   Unknown
5:00 PM 45.5 °F - 34.9 °F 66% 30.38 in - North 1.2 mph - N/A   Unknown
6:00 PM 43.2 °F 41.5 °F 36.1 °F 76% 30.40 in - North 3.5 mph - N/A   Unknown
7:00 PM 40.3 °F - 35.8 °F 84% 30.40 in - NW 2.3 mph - N/A   Unknown
8:00 PM 40.8 °F - 34.7 °F 79% 30.40 in - WNW 2.3 mph - N/A   Unknown
9:00 PM 41 °F - 33 °F 64% 30.42 in - NW 2.3 mph - -  
9:00 PM 40.8 °F - 32.9 °F 73% 30.42 in - NW 2.3 mph - N/A   Unknown
10:00 PM 38.1 °F - 32.0 °F 79% 30.41 in - West 2.3 mph - N/A   Unknown
11:00 PM 39.2 °F - 32.0 °F 75% 30.42 in - Calm Calm - N/A   Unknown